Location: Caribou
(46.8667°N, 68.0167°W)
Time: 21:15:21
(UTC-04:00)

Daily predictions for brighter satellites

Satellite Brightness Start Highest point End
(mag) Time Altitude Azimuth Time Altitude Azimuth Time Altitude Azimuth
Cosmos 1544 Rocket 3.5 19:49:20 10° S 19:53:42 75° E 19:58:08 10° NNE
ERS-1 Rocket 3.8 19:49:34 10° SE 19:54:03 34° ENE 19:58:34 10° N
EP 2 4.2 19:52:50 10° SSW 19:55:25 71° SE 19:58:21 10° NE
USA 186 1.7 19:52:23 10° SSE 19:55:30 57° ENE 19:58:27 10° N
NOSS 2-1 (E) 3.5 19:53:44 10° SW 19:57:42 86° SE 20:02:27 10° NE
Cosmos 1898 Rocket 4.2 19:52:45 10° N 19:57:44 38° ENE 20:02:38 10° SE
Lacrosse 5 2.3 19:59:04 10° NW 20:04:02 52° NNE 20:08:56 10° ESE
EO 1 Delta rocket 3.9 20:00:17 10° NNE 20:04:54 63° E 20:10:02 10° S
OTV 4 2.9 20:06:10 10° SW 20:07:27 12° SSW 20:08:45 10° SSE
Cosmos 1697 Rocket 3.6 20:05:33 10° SSE 20:10:06 26° ESE 20:14:41 10° NE
Helios 1B rocket 4.2 20:07:33 10° N 20:11:24 38° WNW 20:15:13 10° SW
Tiangong 1 1.8 20:10:45 10° WSW 20:13:40 38° S 20:15:57 14° ESE
Cosmos 2278 3.7 20:08:57 10° SSW 20:14:35 71° ESE 20:20:17 10° NNE
SPOT 5 4.1 20:11:41 11° ESE 20:15:36 26° ENE 20:19:34 10° N
BREEZE-M DEB (TANK) 3.5 20:16:35 10° WNW 20:19:38 74° NNE 20:28:05 11° E
USA 215 4.1 20:13:53 10° E 20:20:00 44° NNE 20:26:07 10° NW
Cosmos 1975 3.0 20:16:32 10° S 20:20:31 52° E 20:24:33 10° NNE
Cosmos 1821 Rocket 4.5 20:14:43 10° SSW 20:20:47 65° WNW 20:26:51 10° N
Cosmos 1605 Rocket 4.0 20:17:23 10° S 20:23:44 82° E 20:30:01 10° N
Lacrosse 5 rocket 1.8 20:23:08 10° WNW 20:26:45 46° SW 20:29:46 13° SSE
Cosmos 2369 3.7 20:22:37 10° SSW 20:28:17 80° ESE 20:34:01 10° NNE
H-2A R/B 3.8 20:25:28 10° S 20:29:12 47° W 20:33:02 10° NNW
NOSS 7 (D) 4.3 20:26:15 10° SW 20:29:37 89° SSE 20:33:06 10° NE
Cosmos 2100 Rocket 4.4 20:25:43 10° SSE 20:31:34 43° E 20:37:24 10° NNE
Cosmos 1980 Rocket 3.2 20:28:14 10° SSE 20:32:41 24° ESE 20:37:10 10° NE
Cosmos 1825 Rocket 4.3 20:28:37 10° N 20:32:42 34° ENE 20:35:20 18° SE
ARGOS 4.4 20:30:41 15° ESE 20:33:47 24° ENE 20:38:03 10° N
Cosmos 2061 Rocket 4.4 20:29:30 10° SSE 20:35:22 42° E 20:41:11 10° NNE
Meteor 1-12 Rocket 4.3 20:32:05 10° S 20:37:49 85° E 20:43:42 10° NNE
CZ-4 DEB 2.8 20:38:27 12° S 20:41:19 76° WSW 20:44:29 10° NNW
YAOGAN 11 4.2 20:37:00 10° SSE 20:41:30 85° WSW 20:46:00 10° NNW
Cosmos 858 Rocket 4.5 20:36:49 10° NNW 20:42:08 76° ENE 20:46:23 16° SSE
Cosmos 1953 Rocket 4.4 20:38:13 10° N 20:42:15 32° ENE 20:44:19 22° ESE
SJ-11-01 4.3 20:40:37 10° SSE 20:45:19 82° WSW 20:50:02 10° NNW
H-2A R/B 2.1 20:46:30 22° SE 20:48:59 55° ENE 20:53:03 10° N
Cosmos 1626 Rocket 4.3 20:45:54 10° NNW 20:50:13 55° W 20:54:29 10° S
Terra 3.8 20:49:11 12° ENE 20:50:42 14° ENE 20:53:02 10° NNE
Cosmos 2298 Rocket 4.2 20:46:03 10° NNW 20:51:24 77° WSW 20:55:58 14° SSE
Cosmos 1939 Rocket 2.9 20:50:49 15° SSE 20:54:15 85° W 20:58:27 10° NNW
Cosmos 1666 4.1 20:56:55 21° E 20:56:55 21° E 20:59:27 10° NE
Meteor 1-21 4.4 20:51:10 10° N 20:56:52 57° ENE 21:00:31 22° SSE
Cosmos 2263 Rocket 3.9 20:53:14 10° N 20:57:18 20° NE 21:00:10 14° E
ASTEX 1 3.9 20:52:44 10° NNE 20:57:27 40° E 20:59:48 25° SE
Cosmos 2227 Rocket 3.7 20:52:30 10° NW 20:57:34 34° WSW 21:02:35 10° SSW
deb Chang Zheng 4 3.8 20:54:39 10° NNE 20:59:00 50° E 21:02:03 18° S
Cosmos 1758 Rocket 4.0 20:57:06 10° N 21:01:16 42° ENE 21:02:43 31° ESE
Envisat 3.0 20:57:13 14° SSE 21:01:34 83° WSW 21:06:41 10° NNW
Cosmos 1656 3.6 20:56:46 10° SSW 21:02:23 85° ESE 21:07:58 10° NNE
Cosmos 1937 Rocket 3.5 20:57:36 10° NNW 21:02:54 90° SW 21:06:20 23° SSE
Cosmos 2228 4.5 21:04:59 20° ENE 21:04:59 20° ENE 21:07:41 10° NE
Cosmos 2322 Rocket 3.8 21:06:19 16° E 21:06:19 16° E 21:08:27 10° ENE
Cosmos 1459 Rocket 3.9 21:00:32 10° S 21:06:32 72° E 21:12:39 10° NNE
Cosmos 1500 3.4 21:03:30 10° SSW 21:07:14 69° W 21:11:02 10° N
Iridium 4 Rocket 4.2 21:03:06 10° NNW 21:08:09 50° W 21:12:42 10° SSW
H-2A R/B 3.3 21:08:13 21° E 21:09:33 24° ENE 21:13:28 10° N
Cosmos 2084 4.3 21:08:58 10° NW 21:12:48 42° WSW 21:14:49 24° S
Cosmos 2297 Rocket 3.5 21:07:58 10° NW 21:13:04 36° WSW 21:18:09 10° S
Cosmos 990 Rocket 3.9 21:11:51 10° NNW 21:17:09 89° ENE 21:19:46 31° SSE
Cosmos 1340 2.5 21:13:27 10° N 21:17:16 85° ENE 21:18:25 44° SSE
Cosmos 2227 4.2 21:12:18 10° NNW 21:18:05 73° ENE 21:20:44 33° SE
RESURS DK-1 2.7 21:15:40 10° NW 21:19:46 62° WSW 21:21:23 34° S
Cosmos 2098 Rocket 4.2 21:17:28 23° SSE 21:21:33 53° E 21:27:10 10° NNE
CZ-4B R/B 4.0 21:17:51 10° NNE 21:22:06 33° E 21:22:06 33° E
Cosmos 405 Rocket 4.2 21:23:39 10° NNE 21:26:17 23° ENE 21:26:17 23° ENE
Cosmos 2058 Rocket 3.3 21:26:13 45° ESE 21:26:52 50° E 21:31:15 10° NNE
YAOGAN 6 2.5 21:26:58 55° S 21:27:43 87° W 21:31:27 10° NNW
SPOT 1/Viking Rocket 3.6 21:26:21 38° SE 21:28:20 68° ENE 21:33:32 10° N
SL-19 R/B 4.3 21:25:00 10° NNE 21:30:25 53° E 21:32:09 38° SSE
BREEZE-M DEB (TANK) 3.5 21:19:32 10° WSW 21:31:07 57° SSE 21:32:42 39° ESE
ERS-1 Rocket 4.4 21:28:15 10° SSW 21:32:48 34° W 21:37:23 10° NNW
Cosmos 1606 Rocket 3.5 21:34:01 33° S 21:35:58 86° W 21:40:26 10° N
Cosmos 1802 Rocket 4.1 21:29:58 10° S 21:36:22 82° W 21:42:52 10° N
MetOp-A 4.3 21:34:10 29° S 21:36:59 71° WSW 21:42:22 10° NNW
SL-08 R/B 4.4 21:35:57 25° S 21:39:49 78° E 21:46:00 10° N
Cosmos 1743 3.6 21:40:01 21° SW 21:42:20 50° WNW 21:46:11 10° N
Cosmos 1763 Rocket 3.3 21:43:23 28° SSW 21:46:08 82° ESE 21:51:14 10° NNE
Cosmos 1125 Rocket 3.5 21:41:00 10° NNW 21:46:13 68° ENE 21:47:16 53° ESE
Lacrosse 5 2.7 21:42:13 10° WNW 21:46:56 39° SW 21:48:07 34° SSW
CARTOSAT-1 4.3 21:47:34 37° ENE 21:47:34 37° ENE 21:51:25 10° N
Tiangong 1 3.6 21:47:09 10° WSW 21:47:55 15° WSW 21:47:55 15° WSW
Cosmos 2016 Rocket 4.1 21:47:11 17° SSW 21:52:05 74° W 21:58:18 10° N
SPOT 5 3.8 21:50:57 25° SSW 21:53:28 44° W 21:58:06 10° NNW
Cosmos 1697 Rocket 3.4 21:48:11 10° SW 21:53:43 55° WNW 21:59:16 10° NNE
Cosmos 1726 Rocket 4.0 21:58:23 37° SW 21:59:53 57° WNW 22:04:15 10° N
SL-16 R/B 2.7 22:00:59 41° E 22:00:59 41° E 22:05:26 10° NE
SL-08 RB Rocket 3.7 22:01:28 67° SSW 22:02:02 79° WSW 22:06:43 10° NNW
NOAA 11 4.3 22:00:38 44° S 22:02:21 70° WSW 22:07:50 10° NNW
USA 215 3.2 22:00:24 45° ESE 22:02:40 88° NNE 22:09:14 10° NW
Cosmos 1842 3.9 22:00:23 10° NNW 22:04:10 48° W 22:04:21 48° WSW
Cosmos 841 Rocket 3.6 22:05:13 31° SSW 22:07:44 76° WNW 22:12:59 10° NNE
Landsat 7 3.7 22:12:15 84° S 22:12:24 89° WSW 22:17:12 10° NNW
ARGOS 3.6 22:12:12 43° SSW 22:13:39 57° W 22:18:59 10° NNW
Cosmos 1980 Rocket 2.7 22:10:40 10° SW 22:16:16 59° WNW 22:21:55 10° NNE
Cosmos 1707 4.2 22:13:10 10° N 22:15:30 30° NNE 22:15:30 30° NNE
Cosmos 2360 Rocket 4.0 22:19:43 17° ENE 22:19:43 17° ENE 22:21:31 10° NE
DMSP B5D2-2 4.4 22:14:37 10° NNE 22:19:06 51° ENE 22:19:06 51° ENE
Tsikada Rocket 4.4 22:14:46 10° NNW 22:21:04 59° W 22:23:28 37° SSW
CZ-4 R/B 3.8 22:18:26 10° NNE 22:23:06 84° NW 22:23:06 84° NW
Meteor 2-5 Rocket 3.7 22:17:23 10° N 22:23:20 72° ENE 22:23:48 69° ESE
H-2A R/B 4.5 22:23:39 12° WSW 22:25:23 15° W 22:27:45 10° NW
Cosmos 540 Rocket 3.9 22:28:42 52° NE 22:28:42 52° NE 22:32:43 10° NNE
Terra 1.8 22:28:05 78° NNW 22:28:05 78° NNW 22:32:33 10° NNW
Cosmos 1666 4.4 22:31:54 28° WNW 22:32:04 29° WNW 22:35:25 10° NNW
Cosmos 372 Rocket 4.0 22:30:58 10° NNW 22:35:52 73° W 22:35:52 73° W
IGS 5A 4.3 22:37:24 49° NNW 22:37:24 49° NNW 22:40:30 10° NNW
GP-B 3.7 22:34:53 10° N 22:38:18 52° N 22:38:18 52° N
Cosmos 2228 4.2 22:41:50 38° WNW 22:41:50 38° WNW 22:45:51 10° N
Cosmos 2263 Rocket 2.1 22:36:23 10° NNW 22:41:51 85° WNW 22:41:51 85° WNW
Cosmos 2346 Rocket 4.5 22:35:46 10° NNW 22:42:00 74° W 22:42:47 65° SSW
Meteor 1-24 Rocket 3.9 22:40:48 10° N 22:46:46 67° ENE 22:46:46 67° ENE
Cosmos 2322 Rocket 2.2 22:48:05 77° W 22:48:15 78° WNW 22:53:55 10° NNE
H-2A R/B 2.5 22:48:51 49° W 22:48:51 49° W 22:53:30 10° NNW
Spot 4 4.2 22:49:48 62° NW 22:49:48 62° NW 22:53:51 10° NNW
GEOS 3 Rocket 3.9 22:59:52 10° NE 23:04:57 64° NW 23:04:59 64° NW
Cosmos 1072 Rocket 4.4 23:08:29 87° NW 23:08:29 87° NW 23:14:39 10° N
COSMOS 2428 4.5 23:13:04 20° ENE 23:13:04 20° ENE 23:15:12 10° NE
Cosmos 2278 Rocket 3.5 23:22:25 10° NNW 23:27:23 30° NE 23:27:33 30° NE
Cosmos 2034 Rocket 4.1 23:37:31 72° NNW 23:37:31 72° NNW 23:43:11 10° N
SL-16 R/B 3.5 23:42:47 30° W 23:44:18 35° NW 23:49:30 10° NNE
Cosmos 1092 Rocket 4.1 23:44:23 10° N 23:50:01 71° N 23:50:01 71° N
Cosmos 1844 4.3 23:46:18 10° NNW 23:50:53 52° NNE 23:50:53 52° NNE
